Погода в Бьенхоа

Вьетнам     10°57′45″N   106°52′07″E
темп.,
°C
ветер,
м/с
пор.,
м/с
влажн.,
%
обл.,
%
осадки,
мм/ч
давл.,
гПа
погр.,
м
17 августа, ср
ср1701:00+25ююз2491100 1.3 100896
04:00+24ю229284 0.0 100831
07:00+26ююз2388100 0.0 1009262
10:00+30юз456775 0.0 10101213
13:00+30зюз3671100 0.6 1007757
16:00+30ююз3672100 2.8 1005500
19:00+26юз368429 5.1 1007113
22:00+25юз24915 6.6 101088
18 августа, чт
чт1801:00+24юз269355 10.4 1008157
04:00+24зюз249592 1.3 1007113
07:00+26зюз24907 1.4 1009255
10:00+30з456818 0.0 10091184
13:00+31з4562100 0.2 10071286
16:00+30з2468100 0.3 1005634
19:00+27юз2275100 0.4 100630
22:00+27юз3583100 0.1 1008139
19 августа, пт
пт1901:00+26зюз2688100 0.1 1006189
04:00+25зюз2490100 0.0 1006131
07:00+26зюз2587100 0.2 1007232
10:00+29з457083 0.0 1008838
13:00+32зсз456183 0.0 10051451
16:00+31сз3464100 2.4 1004756
19:00+27зюз2381100 5.8 100554
22:00+27зюз3584100 0.4 100792
20 августа, сб
сб2001:00+25зюз369298 1.4 1006181
04:00+25юз3794100 0.6 1005227
07:00+26зюз269030 0.6 1007335
10:00+30з567133 2.3 10071026
13:00+31з5668100 7.3 10041136
16:00+29зюз2475100 5.5 1003233
19:00+27з2482100 8.6 100596
22:00+26юз3690100 0.8 1007204
21 августа, вс
вс2101:00+25юз389392 0.8 1005295
04:00+24ююз239669 0.8 100579
07:00+26юз2989100 1.0 1006410
10:00+29зюз5773100 3.1 10071056
13:00+31зюз4765100 4.5 10041351
16:00+28ююз4977100 2.1 1004299
19:00+27ююз41081100 4.9 1006265
22:00+25юз3990100 0.8 1007298